Date,TemperatureHighF,TemperatureAvgF,TemperatureLowF,DewpointHighF,DewpointAvgF,DewpointLowF,HumidityHigh,HumidityAvg,HumidityLow,PressureMaxIn,PressureMinIn,WindSpeedMaxMPH,WindSpeedAvgMPH,GustSpeedMaxMPH,PrecipitationSumIn
2013-2-1,61.0,52.7,44.0,46.0,42.0,38.0,82,68,48,30.22,30.10,17,10,0,0.00
2013-2-2,59.0,52.4,46.0,47.0,43.1,39.0,87,71,57,30.28,30.18,25,8,0,0.00
2013-2-3,47.0,45.1,44.0,43.0,41.8,41.0,89,88,86,30.20,30.19,29,27,0,0.00
2013-2-4,57.0,49.2,43.0,49.0,45.6,41.0,95,88,72,30.15,30.02,32,13,0,0.00
2013-2-5,54.0,46.5,43.0,47.0,42.3,39.0,94,85,76,30.09,30.01,36,24,0,0.00
2013-2-6,54.0,49.2,44.0,43.0,41.3,40.0,87,74,61,30.17,30.08,36,22,0,0.00
2013-2-7,51.0,46.4,44.0,43.0,39.4,28.0,91,78,41,30.15,30.00,29,18,0,0.00
2013-2-8,53.0,49.9,48.0,40.0,29.6,22.0,71,47,34,29.96,29.91,19,14,0,0.00
2013-2-9,55.0,49.1,44.0,36.0,27.0,22.0,62,42,36,30.06,29.96,18,8,0,0.00
2013-2-10,57.0,51.6,42.0,40.0,35.8,26.0,78,56,32,30.12,29.98,18,8,0,0.00
2013-2-11,59.0,53.8,48.0,37.0,29.0,22.0,57,39,29,30.19,30.04,15,7,0,0.00
2013-2-12,56.0,50.9,43.0,42.0,38.8,34.0,79,64,52,30.37,30.28,22,6,0,0.00
2013-2-13,59.0,52.0,46.0,45.0,40.7,37.0,80,66,53,30.33,30.17,17,7,0,0.00
2013-2-14,65.0,61.3,52.0,48.0,45.2,42.0,68,55,47,30.22,30.12,12,5,0,0.00
2013-2-15,64.0,57.4,49.0,46.0,42.2,37.0,72,57,44,30.27,30.19,16,8,20,0.00
2013-2-16,63.0,55.5,50.0,48.0,42.9,38.0,80,63,55,30.22,30.00,32,8,8,0.00
2013-2-17,59.0,51.3,45.0,46.0,42.4,35.0,93,73,49,30.03,29.92,30,18,0,0.00
2013-2-18,49.0,45.6,43.0,43.0,39.9,36.0,91,81,66,30.00,29.91,39,23,0,0.00
2013-2-19,46.0,42.5,39.0,41.0,36.2,31.0,90,78,60,29.92,29.70,39,22,0,0.00
2013-2-20,55.0,45.6,36.0,40.0,34.5,29.0,81,66,52,30.01,29.81,27,20,0,0.00
2013-2-21,58.0,48.6,41.0,37.0,33.4,26.0,80,57,32,30.14,30.00,24,13,0,0.00
2013-2-22,58.0,50.6,46.0,43.0,38.6,34.0,83,64,48,30.23,30.11,42,17,0,0.00
2013-2-23,57.0,49.7,44.0,44.0,32.7,13.0,91,58,17,30.23,30.13,38,18,0,0.00
2013-2-24,60.0,52.1,46.0,36.0,25.1,20.0,54,36,25,30.23,30.12,23,12,0,0.00
2013-2-25,58.0,50.2,43.0,44.0,39.9,32.0,91,69,37,30.24,30.12,27,14,0,0.00
2013-2-26,66.0,56.0,46.0,41.0,29.4,17.0,73,38,17,30.20,30.09,15,7,0,0.00
2013-2-27,64.0,55.4,49.0,44.0,34.8,23.0,78,48,26,30.32,30.16,30,9,0,0.00
2013-2-28,64.0,55.8,49.0,52.0,48.0,43.0,87,75,63,30.41,30.31,24,17,0,0.00